Frederick, MD

4:13 AM EDT on September 30, 2016 (GMT -0400)
Frederick Municipal

Weather History for KFDK - May, 2013

Change the Weather History Date:

Wednesday, May 22, 2013

  Actual Average (KHGR) Record (KHGR)
Temperature  
Mean Temperature 76 °F 64 °F  
Max Temperature 89 °F 74 °F 90 °F (2013)
Min Temperature 64 °F 54 °F 36 °F (2002)
Degree Days  
Heating Degree Days 0 4  
Month to date heating degree days 128  
Since 1 July heating degree days 5142  
Cooling Degree Days 12 2  
Month to date cooling degree days 30  
Year to date cooling degree days 45  
Growing Degree Days 26 (Base 50)    
Moisture  
Dew Point 68 °F    
Average Humidity 90    
Maximum Humidity 100    
Minimum Humidity 52    
Precipitation  
Precipitation 0.17 in 0.15 in 0.94 in (2000)
Month to date precipitation 2.71  
Year to date precipitation 14.88  
Sea Level Pressure  
Sea Level Pressure 29.91 in    
Wind  
Wind Speed 3 mph (SSW)    
Max Wind Speed 18 mph    
Max Gust Speed 34 mph    
Visibility 6 miles    
Events Fog , Rain , Thunderstorm    
T = Trace of Precipitation, MM = Missing Value Source: NWS Daily Summary

Daily Weather History Graph

Daily Weather History Graph

Search for Another Location

Airport or City:

Trip Planner

Search our weather history database for the weather conditions in past years. The results will help you decide how hot, cold, wet, or windy it might be!

Date:

Astronomy

May. 22, 2013 Rise Set
Actual Time 5:49 AM EDT 8:22 PM EDT
Civil Twilight 5:18 AM EDT 8:53 PM EDT
Nautical Twilight 4:40 AM EDT 9:32 PM EDT
Astronomical Twilight 3:57 AM EDT 10:15 PM EDT
Moon 5:43 PM EDT (5/22) 3:51 AM EDT (5/22)
Length of Visible Light 15h 35m
Length of Day
14h 33m
Waxing Gibbous, 91% of the Moon is Illuminated
May 22
Waxing Gibbous
May 25
Full
May 31
Last Quarter
Jun 8
New
Jun 16
First Quarter

Hourly Weather History & Observations

Time (EDT) Temp. Heat Index Dew Point Humidity Pressure Visibility Wind Dir Wind Speed Gust Speed Precip Events Conditions
2:15 AM 68.0 °F - 68.0 °F 100% 29.88 in 7.0 mi Calm Calm - N/A   Clear
2:35 AM 68.0 °F - 68.0 °F 100% 29.89 in 7.0 mi Calm Calm - N/A   Clear
2:55 AM 68.0 °F - 68.0 °F 100% 29.88 in 7.0 mi Calm Calm - N/A   Clear
3:15 AM 68.0 °F - 68.0 °F 100% 29.88 in 5.0 mi SSE 3.5 mph - N/A   Clear
3:35 AM 68.0 °F - 68.0 °F 100% 29.88 in 4.0 mi Calm Calm - N/A   Clear
3:55 AM 68.0 °F - 68.0 °F 100% 29.89 in 4.0 mi South 3.5 mph - N/A   Clear
4:15 AM 68.0 °F - 68.0 °F 100% 29.89 in 4.0 mi SSE 3.5 mph - N/A   Clear
4:35 AM 66.2 °F - 66.2 °F 100% 29.88 in 3.0 mi South 3.5 mph - N/A   Clear
4:55 AM 66.2 °F - 66.2 °F 100% 29.87 in 1.5 mi Calm Calm - N/A   Mist
5:15 AM 64.4 °F - 64.4 °F 100% 29.88 in 2.5 mi Calm Calm - N/A   Clear
5:35 AM 64.4 °F - 64.4 °F 100% 29.89 in 4.0 mi SW 3.5 mph - N/A   Scattered Clouds
5:55 AM 64.4 °F - 64.4 °F 100% 29.89 in 2.5 mi Calm Calm - N/A   Mostly Cloudy
6:15 AM 66.2 °F - 66.2 °F 100% 29.91 in 2.0 mi SW 4.6 mph - N/A   Overcast
6:35 AM 68.0 °F - 68.0 °F 100% 29.92 in 1.5 mi SW 6.9 mph - N/A   Overcast
6:45 AM 68.0 °F - 68.0 °F 100% 29.92 in 1.2 mi SSW 8.1 mph - N/A   Overcast
6:55 AM 69.8 °F - 69.8 °F 100% 29.93 in 0.2 mi SSW 6.9 mph - N/A Fog Fog
7:50 AM 69.8 °F - 69.8 °F 100% 29.95 in 0.8 mi SSW 4.6 mph - N/A   Overcast
8:45 AM 71.6 °F - 71.6 °F 100% 29.95 in 10.0 mi SSW 5.8 mph - N/A   Overcast
9:25 AM 77.0 °F - 71.6 °F 83% 29.95 in 5.0 mi SW 4.6 mph - N/A   Scattered Clouds
9:55 AM 78.8 °F - 71.6 °F 78% 29.96 in 5.0 mi WSW 9.2 mph - N/A   Scattered Clouds
10:52 AM 82.4 °F 88.2 °F 73.4 °F 74% 29.95 in 7.0 mi SW 6.9 mph - N/A   Clear
11:50 AM 84.2 °F 89.6 °F 71.6 °F 66% 29.94 in 10.0 mi SW 6.9 mph - N/A   Clear
12:45 PM 87.8 °F 91.4 °F 68.0 °F 52% 29.93 in 10.0 mi SW 8.1 mph - N/A   Partly Cloudy
1:45 PM 87.8 °F 91.4 °F 68.0 °F 52% 29.91 in 10.0 mi SSW 6.9 mph - N/A   Scattered Clouds
3:50 PM 89.6 °F 94.7 °F 69.8 °F 52% 29.87 in 10.0 mi SW 6.9 mph - N/A   Scattered Clouds
4:45 PM 87.8 °F 93.8 °F 71.6 °F 58% 29.85 in 10.0 mi South 10.4 mph - N/A   Scattered Clouds
6:47 PM 84.2 °F 89.6 °F 71.6 °F 66% 29.85 in 7.0 mi South 10.4 mph - N/A   Haze
6:55 PM 80.6 °F 83.9 °F 69.8 °F 70% 29.88 in 10.0 mi WSW 18.4 mph 34.5 mph N/A Thunderstorm Mostly Cloudy
7:45 PM 71.6 °F - 64.4 °F 78% 29.91 in 7.0 mi WSW 8.1 mph - N/A Rain , Thunderstorm Heavy Rain
9:00 PM 68.0 °F - 64.4 °F 88% 29.92 in 7.0 mi East 4.6 mph - 0.01 in Rain , Thunderstorm Rain
9:20 PM 68.0 °F - 66.2 °F 94% 29.91 in 10.0 mi Calm Calm - 0.02 in Thunderstorm Mostly Cloudy
9:40 PM 68.0 °F - 66.2 °F 94% 29.91 in 10.0 mi SSW 3.5 mph - 0.02 in Thunderstorm Thunderstorm
10:00 PM 64.4 °F - 64.4 °F 100% 29.99 in 1.2 mi SW 9.2 mph 27.6 mph 0.03 in Rain , Thunderstorm Heavy Thunderstorms and Rain
10:20 PM 64.4 °F - 64.4 °F 100% 29.97 in 7.0 mi West 4.6 mph - 0.15 in Rain , Thunderstorm Light Thunderstorms and Rain
10:40 PM 64.4 °F - 64.4 °F 100% 29.97 in 10.0 mi Calm Calm - 0.15 in   Light Drizzle
11:00 PM 64.4 °F - 64.4 °F 100% 29.94 in 10.0 mi Calm Calm - N/A   Mostly Cloudy
11:20 PM 64.4 °F - 64.4 °F 100% 29.92 in 10.0 mi East 3.5 mph - N/A   Scattered Clouds
11:40 PM 64.4 °F - 64.4 °F 100% 29.92 in 7.0 mi SSE 3.5 mph - N/A   Clear